UPSVAC Airport Information Service

Dubai International Airport

ICAO: OMDB Country: United Arab Emirates
Latitude: 25.2528 Longitude: 55.3644
Latest Arrival : UPS437 (EDDK-OMDB) Latest Departure : UPS1195 (OMDB-VHHH)


WX CaptureLIVE
Data provided by noaa.gov | Fetched at 22:31:32

METAR : OMDB 112200Z 24003KT 180V270 CAVOK 29/24 Q1005 NOSIG

TAF : OMDB 111700Z 1118/1300 28010KT 8000 NSC BECMG 1118/1120 16005KT BECMG 1206/1208 32012KT BECMG 1216/1218 16005KT


Runway Data for OMDB
Data provided by openaviationdata.com

Runway ID Mag Var Hdg Length Elevation Surface ILS Freq ILS Id ILS Slope
12L 1 119° 13143 ft 34 ft Asphalt 110.1 IDBL 3
12R 1 119° 14606 ft 34 ft Asphalt 109.5 IDBE 3
30L 1 299° 14606 ft 34 ft Asphalt 111.3 IDBW 3
30R 1 299° 13143 ft 34 ft Asphalt 110.9 IDBR 3

Dubai International Airport, United Arab Emirates
Use only for reference purposes



Not for navigational purposes.